SWR9CW LSZH-LIPZ

Flight info

Callsign SWR9CW
Flight time 0h 38m
Altitude 33000
Route DEGES Y170 ARGAX DCT RESIA DCT ADOSA/N0377F190 L612 ALBET
Aircraft A20N/M-SDE2E3FGHIJ1RWXY/LB1

Departure

Time 2026-04-26 12:28
Airport Zürich Airport (LSZH)

Arrival

Time 2026-04-26 13:07
Airport Venice Marco Polo Airport (LIPZ)
Time Latitude Longitude Altitude Speed Heading
2026-04-26 11:35 47.44664 8.55995 1397 ft 0 kts 245°
2026-04-26 12:14 47.44663 8.55991 1397 ft 1 kts 245°
2026-04-26 12:14 47.44655 8.55963 1397 ft 4 kts 245°
2026-04-26 12:14 47.44644 8.55910 1396 ft 6 kts 279°
2026-04-26 12:14 47.44684 8.55859 1396 ft 6 kts 336°
2026-04-26 12:15 47.44739 8.55823 1396 ft 11 kts 335°
2026-04-26 12:15 47.44822 8.55767 1397 ft 14 kts 336°
2026-04-26 12:15 47.44913 8.55712 1399 ft 13 kts 353°
2026-04-26 12:15 47.45008 8.55725 1401 ft 13 kts 355°
2026-04-26 12:16 47.45095 8.55675 1402 ft 13 kts 335°
2026-04-26 12:16 47.45177 8.55618 1403 ft 12 kts 335°
2026-04-26 12:16 47.45264 8.55575 1404 ft 13 kts 350°
2026-04-26 12:16 47.45361 8.55520 1403 ft 16 kts 335°
2026-04-26 12:17 47.45474 8.55442 1402 ft 16 kts 335°
2026-04-26 12:17 47.45572 8.55374 1401 ft 14 kts 335°
2026-04-26 12:17 47.45665 8.55358 1401 ft 14 kts 54°
2026-04-26 12:17 47.45663 8.55499 1403 ft 13 kts 96°
2026-04-26 12:18 47.45654 8.55625 1406 ft 11 kts 96°
2026-04-26 12:18 47.45646 8.55740 1408 ft 11 kts 96°
2026-04-26 12:18 47.45637 8.55880 1409 ft 15 kts 97°
2026-04-26 12:18 47.45624 8.56055 1412 ft 18 kts 96°
2026-04-26 12:19 47.45611 8.56249 1414 ft 18 kts 95°
2026-04-26 12:19 47.45599 8.56412 1415 ft 13 kts 97°
2026-04-26 12:19 47.45589 8.56537 1416 ft 12 kts 96°
2026-04-26 12:19 47.45581 8.56656 1418 ft 11 kts 96°
2026-04-26 12:20 47.45575 8.56752 1420 ft 5 kts 96°
2026-04-26 12:20 47.45573 8.56767 1420 ft 0 kts 96°
2026-04-26 12:24 47.45573 8.56777 1420 ft 2 kts 96°
2026-04-26 12:24 47.45570 8.56818 1421 ft 5 kts 96°
2026-04-26 12:25 47.45562 8.56922 1423 ft 0 kts 97°
2026-04-26 12:25 47.45562 8.56927 1423 ft 1 kts 97°
2026-04-26 12:25 47.45562 8.56957 1423 ft 5 kts 79°
2026-04-26 12:26 47.45596 8.57009 1424 ft 9 kts 15°
2026-04-26 12:26 47.45653 8.57017 1425 ft 5 kts 352°
2026-04-26 12:26 47.45662 8.56995 1425 ft 0 kts 276°
2026-04-26 12:27 47.45662 8.56994 1425 ft 2 kts 276°
2026-04-26 12:28 47.45692 8.56591 1418 ft 82 kts 277°
2026-04-26 12:28 47.45778 8.55368 1401 ft 153 kts 276°
2026-04-26 12:28 47.45900 8.53617 1703 ft 182 kts 278°
2026-04-26 12:28 47.46004 8.51786 2509 ft 180 kts 277°
2026-04-26 12:29 47.46105 8.49967 3326 ft 179 kts 277°
2026-04-26 12:29 47.46207 8.48176 4071 ft 178 kts 272°
2026-04-26 12:29 47.44774 8.45375 5348 ft 190 kts 192°
2026-04-26 12:30 47.43465 8.45582 5819 ft 201 kts 149°
2026-04-26 12:30 47.42573 8.47195 6169 ft 217 kts 105°
2026-04-26 12:30 47.42399 8.49495 6655 ft 235 kts 90°
2026-04-26 12:31 47.42338 8.54615 7914 ft 266 kts 90°
2026-04-26 12:31 47.42320 8.57420 8557 ft 281 kts 90°
2026-04-26 12:31 47.42290 8.60312 9442 ft 286 kts 91°
2026-04-26 12:31 47.42249 8.63228 10348 ft 290 kts 91°
2026-04-26 12:32 47.42202 8.66232 11038 ft 301 kts 91°
2026-04-26 12:32 47.42151 8.69417 11512 ft 320 kts 91°
2026-04-26 12:32 47.42027 8.76401 12355 ft 357 kts 93°
2026-04-26 12:33 47.41518 8.79992 12887 ft 369 kts 112°
2026-04-26 12:33 47.40125 8.83194 13633 ft 374 kts 134°
2026-04-26 12:33 47.38182 8.85754 14438 ft 377 kts 139°
2026-04-26 12:33 47.36214 8.88324 15142 ft 382 kts 139°
2026-04-26 12:34 47.34228 8.90967 15862 ft 387 kts 138°
2026-04-26 12:34 47.32225 8.93643 16528 ft 392 kts 138°
2026-04-26 12:34 47.30167 8.96391 17231 ft 396 kts 139°
2026-04-26 12:34 47.28126 8.99110 17845 ft 401 kts 139°
2026-04-26 12:35 47.26051 9.01875 18498 ft 406 kts 139°
2026-04-26 12:35 47.23945 9.04675 19164 ft 410 kts 139°
2026-04-26 12:35 47.21826 9.07490 19839 ft 413 kts 139°
2026-04-26 12:35 47.19667 9.10357 20518 ft 417 kts 139°
2026-04-26 12:36 47.17506 9.13222 21141 ft 421 kts 139°
2026-04-26 12:36 47.15345 9.16085 21778 ft 424 kts 139°
2026-04-26 12:36 47.13131 9.19016 22384 ft 428 kts 139°
2026-04-26 12:36 47.10912 9.21950 22978 ft 431 kts 139°
2026-04-26 12:37 47.08688 9.24884 23556 ft 435 kts 139°
2026-04-26 12:37 47.06405 9.27887 24127 ft 438 kts 139°
2026-04-26 12:37 47.04134 9.30870 24676 ft 442 kts 139°
2026-04-26 12:37 47.01830 9.33896 25199 ft 446 kts 139°
2026-04-26 12:38 46.99516 9.36936 25710 ft 449 kts 139°
2026-04-26 12:38 46.97207 9.39971 26197 ft 452 kts 139°
2026-04-26 12:38 46.94835 9.43088 26666 ft 456 kts 139°
2026-04-26 12:38 46.92493 9.46168 27254 ft 456 kts 139°
2026-04-26 12:39 46.90136 9.49268 27960 ft 453 kts 139°
2026-04-26 12:39 46.87811 9.52322 28649 ft 450 kts 139°
2026-04-26 12:39 46.85463 9.55407 29285 ft 448 kts 139°
2026-04-26 12:39 46.83104 9.58501 29858 ft 448 kts 139°
2026-04-26 12:40 46.80796 9.61524 30397 ft 447 kts 139°
2026-04-26 12:40 46.78472 9.64561 30930 ft 445 kts 139°
2026-04-26 12:40 46.76301 9.67395 31337 ft 445 kts 140°
2026-04-26 12:40 46.73958 9.70451 31653 ft 445 kts 140°
2026-04-26 12:41 46.71636 9.73474 31925 ft 446 kts 140°
2026-04-26 12:41 46.69349 9.76447 32192 ft 447 kts 140°
2026-04-26 12:41 46.67016 9.79474 32466 ft 448 kts 140°
2026-04-26 12:41 46.64681 9.82502 32736 ft 449 kts 140°
2026-04-26 12:42 46.62330 9.85548 33005 ft 450 kts 140°
2026-04-26 12:42 46.59985 9.88585 33247 ft 451 kts 140°
2026-04-26 12:42 46.57655 9.91603 33280 ft 452 kts 140°
2026-04-26 12:43 46.52939 9.97707 33287 ft 452 kts 140°
2026-04-26 12:43 46.48232 10.03769 33276 ft 452 kts 140°
2026-04-26 12:44 46.43424 10.09641 33258 ft 451 kts 142°
2026-04-26 12:44 46.38538 10.15440 33241 ft 451 kts 142°
2026-04-26 12:45 46.33699 10.21197 33229 ft 451 kts 142°
2026-04-26 12:45 46.28847 10.26974 33214 ft 452 kts 142°
2026-04-26 12:46 46.24009 10.32729 33192 ft 452 kts 142°
2026-04-26 12:46 46.21581 10.35616 32917 ft 452 kts 142°
2026-04-26 12:46 46.19159 10.38493 32589 ft 449 kts 142°
2026-04-26 12:46 46.16763 10.41335 32217 ft 446 kts 142°
2026-04-26 12:47 46.14349 10.44197 31860 ft 443 kts 142°
2026-04-26 12:47 46.11965 10.47019 31536 ft 443 kts 141°
2026-04-26 12:47 46.09602 10.49814 31204 ft 442 kts 141°
2026-04-26 12:47 46.07239 10.52606 30620 ft 440 kts 141°
2026-04-26 12:48 46.04830 10.55447 29746 ft 444 kts 141°
2026-04-26 12:48 46.02444 10.58256 28849 ft 447 kts 141°
2026-04-26 12:48 46.00021 10.61102 28012 ft 449 kts 141°
2026-04-26 12:48 45.97606 10.63934 27182 ft 450 kts 141°
2026-04-26 12:49 45.95340 10.66589 26378 ft 452 kts 142°
2026-04-26 12:49 45.92879 10.69468 25511 ft 452 kts 141°
2026-04-26 12:49 45.90454 10.72303 24922 ft 447 kts 141°
2026-04-26 12:49 45.88139 10.75008 24353 ft 441 kts 141°
2026-04-26 12:50 45.85773 10.77772 23713 ft 437 kts 141°
2026-04-26 12:50 45.83443 10.80491 23078 ft 433 kts 141°
2026-04-26 12:50 45.81100 10.83224 22466 ft 429 kts 141°
2026-04-26 12:50 45.78812 10.85890 21840 ft 425 kts 141°
2026-04-26 12:51 45.76505 10.88580 21229 ft 421 kts 141°
2026-04-26 12:51 45.74266 10.91189 20644 ft 417 kts 141°
2026-04-26 12:51 45.71999 10.93827 20043 ft 414 kts 141°
2026-04-26 12:51 45.69801 10.96381 19465 ft 410 kts 141°
2026-04-26 12:52 45.67594 10.98938 18982 ft 405 kts 141°
2026-04-26 12:52 45.65482 11.01602 18643 ft 404 kts 135°
2026-04-26 12:52 45.63596 11.04616 18329 ft 402 kts 127°
2026-04-26 12:52 45.61991 11.07861 18060 ft 401 kts 122°
2026-04-26 12:53 45.60509 11.11179 17781 ft 399 kts 121°
2026-04-26 12:53 45.59020 11.14565 17495 ft 397 kts 121°
2026-04-26 12:53 45.57559 11.17845 17182 ft 394 kts 121°
2026-04-26 12:53 45.56086 11.21131 16696 ft 389 kts 122°
2026-04-26 12:54 45.54630 11.24370 16116 ft 386 kts 122°
2026-04-26 12:54 45.53199 11.27554 15559 ft 383 kts 122°
2026-04-26 12:54 45.51772 11.30723 15023 ft 379 kts 122°
2026-04-26 12:54 45.50355 11.33862 14499 ft 376 kts 122°
2026-04-26 12:55 45.48942 11.36992 13960 ft 372 kts 122°
2026-04-26 12:55 45.47549 11.40074 13419 ft 369 kts 122°
2026-04-26 12:55 45.46167 11.43127 13121 ft 365 kts 122°
2026-04-26 12:55 45.44789 11.46165 12915 ft 365 kts 122°
2026-04-26 12:56 45.43406 11.49177 12685 ft 360 kts 123°
2026-04-26 12:56 45.42038 11.52103 12434 ft 347 kts 116°
2026-04-26 12:56 45.41060 11.55146 12109 ft 327 kts 111°
2026-04-26 12:56 45.40235 11.58082 11604 ft 315 kts 110°
2026-04-26 12:57 45.39420 11.60953 10855 ft 312 kts 111°
2026-04-26 12:57 45.38583 11.63786 10452 ft 312 kts 111°
2026-04-26 12:57 45.37753 11.66516 10254 ft 314 kts 112°
2026-04-26 12:58 45.35988 11.72197 9833 ft 304 kts 113°
2026-04-26 12:58 45.35144 11.74878 9320 ft 295 kts 113°
2026-04-26 12:58 45.34325 11.77473 8840 ft 285 kts 113°
2026-04-26 12:58 45.33514 11.80045 8191 ft 282 kts 113°
2026-04-26 12:59 45.32721 11.82557 7550 ft 279 kts 113°
2026-04-26 12:59 45.31936 11.85045 6908 ft 277 kts 114°
2026-04-26 12:59 45.31116 11.87508 6332 ft 271 kts 120°
2026-04-26 12:59 45.30165 11.89746 5745 ft 268 kts 117°
2026-04-26 13:00 45.29350 11.92138 5354 ft 264 kts 108°
2026-04-26 13:00 45.29135 11.94707 4830 ft 268 kts 83°
2026-04-26 13:00 45.29473 11.97322 4449 ft 267 kts 77°
2026-04-26 13:00 45.29911 11.99888 4106 ft 265 kts 76°
2026-04-26 13:01 45.30370 12.02411 3770 ft 263 kts 75°
2026-04-26 13:01 45.30831 12.04887 3595 ft 254 kts 75°
2026-04-26 13:01 45.31282 12.07270 3436 ft 245 kts 75°
2026-04-26 13:01 45.31735 12.09547 3273 ft 237 kts 70°
2026-04-26 13:02 45.32466 12.11626 3085 ft 231 kts 56°
2026-04-26 13:02 45.33472 12.13343 2987 ft 221 kts 45°
2026-04-26 13:02 45.34607 12.14811 2983 ft 218 kts 41°
2026-04-26 13:02 45.35759 12.16217 2985 ft 218 kts 41°
2026-04-26 13:03 45.36889 12.17620 2984 ft 212 kts 42°
2026-04-26 13:03 45.37986 12.19017 2881 ft 209 kts 43°
2026-04-26 13:03 45.39055 12.20397 2633 ft 207 kts 43°
2026-04-26 13:03 45.40105 12.21759 2455 ft 199 kts 43°
2026-04-26 13:04 45.41126 12.23079 2175 ft 196 kts 43°
2026-04-26 13:04 45.42134 12.24378 1893 ft 193 kts 43°
2026-04-26 13:04 45.43101 12.25625 1643 ft 181 kts 43°
2026-04-26 13:04 45.44002 12.26788 1392 ft 169 kts 43°
2026-04-26 13:05 45.44843 12.27870 1168 ft 158 kts 43°
2026-04-26 13:05 45.45630 12.28883 971 ft 144 kts 43°
2026-04-26 13:05 45.46342 12.29806 788 ft 136 kts 43°
2026-04-26 13:05 45.47049 12.30725 633 ft 136 kts 44°
2026-04-26 13:06 45.47741 12.31622 475 ft 136 kts 44°
2026-04-26 13:06 45.48446 12.32539 290 ft 137 kts 43°
2026-04-26 13:06 45.49157 12.33449 108 ft 136 kts 43°
2026-04-26 13:06 45.49849 12.34339 10 ft 126 kts 41°
2026-04-26 13:07 45.50383 12.35023 9 ft 78 kts 43°
2026-04-26 13:07 45.50673 12.35393 12 ft 35 kts 40°
2026-04-26 13:07 45.50849 12.35544 12 ft 26 kts 12°
2026-04-26 13:07 45.50983 12.35547 13 ft 17 kts 320°
2026-04-26 13:08 45.50982 12.35376 12 ft 18 kts 257°
2026-04-26 13:08 45.50941 12.35196 9 ft 19 kts 231°
2026-04-26 13:08 45.50841 12.35061 9 ft 19 kts 223°
2026-04-26 13:08 45.50739 12.34924 7 ft 20 kts 223°
2026-04-26 13:09 45.50634 12.34782 6 ft 20 kts 230°
2026-04-26 13:09 45.50601 12.34593 7 ft 20 kts 266°
2026-04-26 13:09 45.50579 12.34405 9 ft 18 kts 230°
2026-04-26 13:09 45.50467 12.34341 9 ft 18 kts 176°
2026-04-26 13:10 45.50341 12.34350 9 ft 18 kts 176°
2026-04-26 13:10 45.50236 12.34278 12 ft 16 kts 221°
2026-04-26 13:10 45.50152 12.34172 12 ft 16 kts 221°
2026-04-26 13:10 45.50081 12.34074 12 ft 9 kts 245°
2026-04-26 13:11 45.50102 12.34010 12 ft 6 kts 313°
2026-04-26 13:11 45.50114 12.33991 12 ft 0 kts 312°